Temperature
9 9 8 8 7 7 6 6 5 4 4 4 4 3 2 2 1 1 1 0 0 0 0 0 -0 -0 -1 -1 -2 -2 -2 -3 -3 -3 -3 -3 -3 -3
9 8 7 7 6 6 5 4 4 3 2 2 2 2 1 1 0 0 -0 -0 -0 -0 -0 -1 -1 -2 -2 -2 -3 -3 -3 -3 -4 -4 -4 -3 -3 -3
8 7 6 5 5 4 4 3 3 2 2 1 1 1 0 0 -0 -1 -1 -1 -1 -1 -1 -2 -2 -2 -2 -3 -3 -4 -4 -4 -4 -4 -4 -4 -4 -4
6 5 5 4 4 3 3 2 2 1 1 0 -0 -0 -1 -1 -1 -1 -1 -1 -1 -2 -2 -2 -2 -3 -3 -3 -4 -4 -4 -5 -4 -5 -4 -4 -4 -4
5 4 3 3 3 2 2 1 0 0 -0 -1 -1 -2 -2 -2 -2 -2 -2 -2 -2 -2 -2 -2 -3 -3 -3 -3 -4 -4 -4 -4 -4 -5 -5 -5 -5 -5
3 3 2 2 1 1 1 0 -0 -1 -2 -2 -3 -3 -3 -3 -4 -4 -4 -4 -3 -3 -3 -3 -3 -3 -3 -3 -3 -4 -4 -4 -4 -4 -5 -5 -5 -5
2 1 1 1 0 -0 -0 -1 -1 -2 -3 -4 -4 -4 -4 -5 -5 -5 -5 -5 -4 -4 -4 -4 -4 -4 -4 -4 -4 -4 -4 -4 -5 -5 -5 -6 -6 -6
1 0 0 -0 -1 -1 -1 -2 -2 -3 -4 -4 -5 -5 -5 -6 -6 -6 -7 -7 -6 -5 -6 -5 -5 -4 -4 -4 -4 -4 -4 -5 -5 -5 -6 -6 -6 -6
-0 -0 -1 -1 -1 -2 -2 -3 -3 -4 -4 -5 -5 -5 -6 -6 -6 -7 -7 -7 -7 -6 -6 -6 -5 -5 -5 -5 -4 -4 -4 -5 -5 -5 -6 -6 -6 -6
-1 -1 -2 -2 -2 -3 -3 -3 -4 -4 -5 -5 -6 -6 -6 -6 -7 -7 -7 -7 -6 -6 -7 -7 -6 -6 -6 -5 -4 -4 -4 -5 -5 -5 -6 -6 -6 -6
-2 -2 -2 -3 -3 -4 -4 -4 -5 -5 -5 -5 -5 -6 -6 -6 -6 -7 -7 -7 -7 -6 -6 -7 -7 -7 -6 -5 -4 -4 -4 -5 -5 -5 -5 -6 -6 -6
-3 -3 -3 -3 -4 -5 -5 -6 -6 -6 -6 -5 -5 -6 -6 -6 -6 -6 -7 -7 -7 -8 -7 -8 -8 -8 -8 -6 -5 -5 -5 -5 -5 -5 -6 -6 -6 -7
-4 -4 -4 -4 -5 -5 -6 -6 -6 -6 -6 -6 -6 -5 -6 -6 -6 -6 -6 -7 -7 -7 -7 -8 -8 -8 -9 -9 -6 -5 -6 -6 -6 -6 -6 -6 -6 -7
-4 -5 -5 -5 -5 -6 -6 -6 -6 -6 -6 -6 -6 -6 -6 -6 -6 -6 -6 -6 -6 -6 -6 -7 -8 -8 -9 -9 -8 -6 -6 -6 -6 -6 -6 -6 -7 -7
-5 -5 -5 -6 -6 -6 -6 -6 -6 -6 -6 -6 -6 -6 -6 -6 -6 -6 -6 -6 -6 -6 -6 -7 -7 -8 -9 -9 -9 -7 -7 -6 -6 -6 -7 -7 -7 -7
-6 -6 -6 -6 -6 -6 -7 -7 -7 -7 -7 -7 -7 -6 -6 -6 -6 -6 -6 -6 -6 -5 -5 -7 -7 -8 -8 -8 -8 -8 -7 -7 -7 -7 -8 -7 -7 -7
-6 -6 -7 -7 -7 -7 -7 -7 -7 -7 -7 -7 -7 -7 -7 -6 -6 -7 -7 -7 -7 -7 -6 -6 -7 -8 -8 -8 -8 -7 -7 -7 -7 -8 -8 -8 -7 -7
-7 -7 -7 -7 -7 -7 -7 -7 -7 -7 -7 -7 -7 -7 -7 -7 -7 -7 -7 -7 -8 -7 -7 -7 -7 -8 -8 -8 -7 -7 -7 -7 -7 -8 -8 -8 -8 -7
-7 -7 -7 -7 -7 -7 -7 -7 -7 -7 -7 -7 -7 -7 -7 -7 -7 -7 -7 -8 -8 -8 -8 -8 -8 -9 -9 -8 -7 -7 -8 -7 -7 -7 -8 -8 -8 -7
-7 -7 -7 -8 -8 -8 -8 -7 -7 -7 -8 -8 -8 -8 -8 -8 -8 -8 -8 -8 -8 -8 -8 -8 -8 -8 -8 -8 -8 -7 -6 -7 -7 -7 -7 -7 -7 -6
-7 -8 -8 -8 -8 -8 -8 -8 -8 -8 -8 -8 -8 -8 -8 -8 -8 -8 -8 -8 -8 -8 -8 -8 -8 -8 -8 -8 -8 -7 -6 -6 -7 -7 -7 -7 -7 -7
-7 -8 -8 -8 -8 -8 -8 -8 -8 -8 -8 -8 -8 -8 -8 -8 -8 -8 -8 -8 -8 -8 -8 -8 -8 -8 -8 -8 -8 -7 -7 -6 -6 -6 -6 -6 -7 -7
-8 -8 -8 -8 -8 -8 -8 -8 -8 -8 -8 -8 -8 -8 -8 -8 -8 -8 -8 -8 -8 -8 -8 -8 -8 -8 -8 -8 -7 -7 -7 -7 -6 -6 -5 -6 -6 -6
Wind_Speed
7 7 6 5 4 4 3 3 4 4 4 4 3 3 5 6 6 9 12 13 16 19 21 21 22 22 23 24 24 25 25 25 26 26 26 27 28 28
7 9 7 6 5 5 4 4 3 2 2 1 2 3 4 7 9 11 13 16 18 19 20 20 21 22 23 24 24 24 25 25 26 26 27 28 28 28
9 10 9 8 7 5 4 4 3 2 3 2 2 3 6 8 9 11 12 14 15 17 19 21 22 22 23 23 24 24 24 25 26 26 27 28 29 29
10 10 10 7 7 6 4 3 2 3 3 4 4 5 7 8 9 10 11 13 14 17 20 21 22 23 23 23 23 24 25 26 26 27 28 29 30 30
10 10 9 8 7 5 4 3 2 3 3 4 5 6 7 7 9 10 11 11 13 15 18 19 20 21 22 23 25 25 26 26 27 27 28 28 29 30
9 9 8 7 6 5 4 3 3 3 4 5 6 7 7 8 8 8 9 9 10 13 16 17 18 20 22 24 25 25 25 25 26 26 27 28 28 29
9 8 7 6 5 3 2 3 3 4 4 5 6 7 7 7 7 8 10 11 12 11 10 10 12 14 17 20 22 22 24 25 26 27 28 28 28 29
8 7 6 5 3 3 3 4 5 5 5 6 7 8 9 9 8 8 10 11 10 7 10 13 13 14 14 16 20 24 26 27 28 28 28 28 28 28
6 5 3 3 2 2 3 5 6 7 8 8 10 10 10 10 10 12 11 12 13 13 14 15 14 14 13 17 23 26 27 28 28 28 27 27 27 27
4 3 2 2 2 3 4 5 6 7 8 8 9 10 10 11 11 12 13 13 14 13 12 13 13 14 13 15 22 26 27 27 27 27 27 26 27 27
3 2 1 1 2 6 6 6 8 7 7 10 13 15 17 18 15 10 10 10 12 11 10 8 10 13 14 14 16 21 22 24 26 27 27 27 27 26
1 1 1 3 4 6 6 7 8 8 8 9 10 12 12 12 12 10 8 9 9 8 6 6 10 10 8 9 10 12 16 21 25 26 26 26 25 18
0 1 1 4 7 7 8 7 8 10 9 9 9 9 8 7 7 7 7 8 10 10 8 7 9 9 9 9 11 13 14 14 15 17 21 23 23 18
1 2 3 6 8 8 7 7 10 9 7 7 8 8 8 8 8 9 11 13 14 15 16 14 10 12 13 15 13 12 13 14 14 15 14 18 19 21
2 4 6 7 7 6 6 8 7 5 5 6 7 8 8 9 10 10 11 12 15 18 19 19 15 14 14 14 14 16 16 15 14 12 12 12 13 13
3 4 5 5 5 5 5 4 4 5 6 7 8 9 9 9 9 9 10 11 11 13 11 14 15 16 15 17 16 18 17 12 12 14 14 15 14 13
4 4 4 4 4 4 4 4 4 5 5 6 7 9 9 9 10 9 9 10 11 13 15 11 10 12 16 16 17 18 17 17 16 15 15 15 15 14
4 4 4 4 5 5 5 5 5 5 6 7 8 8 9 10 11 11 10 11 12 13 14 14 13 14 13 12 17 18 16 16 15 15 15 16 17 15
4 4 4 5 5 5 6 6 7 7 7 8 8 9 9 10 11 11 11 12 13 14 14 13 13 13 15 18 11 11 14 16 16 16 15 15 17 16
3 4 5 5 5 6 6 7 7 8 8 8 9 9 10 10 11 12 12 13 14 15 15 14 12 12 14 17 18 18 16 16 15 16 16 15 16 19
4 5 5 6 6 7 7 7 8 8 9 9 9 10 10 10 11 12 13 17 16 15 15 15 14 16 14 13 14 16 15 13 16 16 16 16 16 15
5 6 6 6 7 7 8 8 8 9 10 9 10 10 10 11 13 15 14 14 14 15 17 16 15 14 13 15 17 20 21 17 14 19 22 21 14 9
6 6 7 7 7 7 7 9 10 10 10 10 10 11 11 12 12 13 14 15 15 16 17 17 16 14 14 15 17 17 21 20 16 15 13 15 20 25
Wind_Direction
161 147 137 124 112 99 105 130 151 183 211 194 199 202 216 233 247 267 278 282 287 289 291 292 293 292 291 290 289 289 288 287 286 284 283 281 280 278
138 134 128 123 111 103 104 92 90 148 196 184 216 218 233 256 267 276 281 285 283 284 287 290 290 290 289 288 287 286 286 285 284 283 282 281 281 280
134 134 130 127 121 113 110 112 118 152 209 243 238 252 265 271 277 279 282 284 283 284 287 290 290 289 288 287 286 286 285 284 284 283 283 282 281 281
136 132 131 129 123 123 125 136 154 185 215 249 257 255 263 275 281 284 286 284 283 286 289 290 289 289 288 287 286 285 285 285 284 283 282 281 280 279
133 132 131 131 128 130 138 153 176 202 224 249 265 267 270 274 283 284 285 285 285 287 289 289 289 289 288 288 287 287 286 285 284 283 281 280 278 277
114 116 122 130 135 145 158 176 194 222 238 252 264 271 273 279 283 291 296 296 295 295 290 288 288 289 287 286 286 285 285 284 283 282 280 278 276 275
106 107 113 121 134 155 180 197 217 238 249 259 269 277 281 289 293 299 297 301 299 293 292 293 294 291 290 287 285 283 283 284 283 282 281 279 277 276
112 110 114 122 143 189 228 240 244 252 261 270 276 280 286 292 297 297 297 300 302 299 302 298 296 291 289 287 286 287 287 287 286 285 283 281 279 277
113 119 126 139 174 232 242 252 256 262 267 275 276 279 289 295 297 293 290 289 286 290 297 292 292 289 289 287 288 288 288 288 288 287 285 283 280 278
107 115 133 170 214 249 262 268 273 271 271 270 273 280 284 287 285 283 285 286 284 283 282 285 290 290 293 291 289 287 287 287 288 288 287 285 284 281
106 124 180 235 256 273 280 282 287 285 275 273 278 281 284 285 286 286 283 284 289 291 288 280 290 298 295 288 285 284 285 286 287 287 287 286 284 282
123 175 246 294 297 296 292 288 289 298 301 295 288 285 284 283 278 267 269 274 282 290 285 281 292 306 299 282 284 289 290 288 287 286 286 285 284 281
288 298 308 310 309 308 302 292 294 301 299 296 296 295 292 287 282 275 267 262 268 269 278 292 285 286 278 288 293 289 286 286 289 288 287 284 281 276
318 317 318 318 316 313 303 298 299 299 292 292 292 295 299 300 299 295 286 274 264 264 272 276 273 276 279 284 288 289 289 290 288 286 285 283 280 275
319 321 320 320 315 301 294 300 298 287 287 288 291 295 297 297 297 295 290 283 276 270 266 261 258 263 266 272 277 286 293 294 287 280 279 280 280 278
310 309 309 305 295 293 297 292 285 286 290 288 292 295 297 295 292 293 295 300 297 293 275 257 252 255 263 268 273 280 283 281 282 284 284 281 277 271
315 299 299 305 307 308 302 298 294 289 286 288 292 295 296 296 295 295 291 292 288 294 300 298 277 261 258 265 272 274 277 279 279 282 284 283 279 272
306 300 307 310 311 312 309 307 302 295 294 294 292 290 292 295 296 296 291 289 289 292 294 298 301 299 290 271 245 262 272 278 283 283 282 282 283 278
300 304 304 303 301 299 297 297 296 296 295 289 286 287 288 290 291 293 294 294 293 294 294 295 295 295 298 302 287 244 266 283 286 286 282 279 281 282
298 296 296 296 294 293 293 292 293 295 292 288 286 285 285 287 290 291 292 293 295 297 297 295 292 291 292 295 295 292 273 271 280 284 286 285 281 279
294 290 289 290 289 289 288 288 289 289 289 288 286 285 285 287 288 289 291 293 294 294 295 296 293 290 288 288 287 288 289 269 261 272 282 286 287 287
289 288 288 286 286 286 286 286 287 287 288 286 286 287 287 286 287 290 291 293 293 292 293 294 295 295 292 291 291 294 298 298 283 266 261 261 270 278
288 289 288 288 285 283 283 283 284 284 285 285 286 287 289 289 288 288 290 290 291 294 297 299 300 297 294 291 292 294 296 301 303 301 288 268 259 259
Height
1482 1484 1485 1486 1488 1489 1491 1493 1495 1494 1495 1495 1496 1495 1495 1495 1493 1491 1489 1487 1485 1483 1480 1477 1475 1472 1469 1467 1465 1463 1461 1460 1458 1457 1457 1456 1455 1455
1475 1477 1478 1480 1481 1483 1485 1486 1488 1490 1490 1490 1491 1491 1490 1489 1487 1485 1482 1480 1478 1475 1472 1469 1466 1464 1461 1459 1456 1454 1453 1451 1450 1449 1448 1447 1447 1446
1469 1471 1473 1474 1476 1478 1481 1482 1483 1485 1485 1485 1485 1485 1485 1483 1481 1478 1476 1473 1471 1468 1465 1462 1459 1456 1453 1451 1449 1446 1445 1443 1442 1440 1439 1438 1437 1437
1464 1466 1469 1471 1473 1475 1477 1478 1479 1480 1480 1480 1480 1480 1479 1477 1475 1472 1469 1467 1464 1461 1458 1455 1452 1449 1446 1444 1441 1439 1437 1435 1433 1431 1430 1428 1428 1427
1462 1464 1466 1469 1470 1472 1473 1475 1475 1476 1475 1475 1474 1474 1473 1471 1468 1465 1462 1460 1457 1454 1451 1448 1445 1442 1439 1437 1434 1431 1428 1426 1423 1421 1420 1418 1417 1416
1460 1462 1465 1467 1468 1470 1471 1471 1472 1472 1471 1470 1469 1469 1467 1465 1462 1459 1456 1454 1451 1448 1444 1441 1438 1435 1432 1429 1426 1423 1420 1417 1414 1412 1410 1408 1407 1406
1459 1461 1463 1465 1466 1467 1468 1468 1467 1467 1467 1466 1465 1464 1462 1460 1458 1455 1452 1448 1445 1442 1438 1435 1432 1428 1425 1422 1418 1415 1412 1408 1406 1403 1401 1399 1397 1396
1458 1460 1462 1463 1464 1464 1465 1464 1464 1463 1462 1461 1460 1459 1457 1455 1453 1450 1447 1443 1439 1437 1433 1429 1426 1421 1418 1414 1411 1407 1404 1400 1397 1394 1391 1389 1387 1386
1459 1460 1460 1461 1461 1461 1461 1460 1460 1459 1458 1457 1455 1454 1452 1450 1448 1445 1442 1439 1434 1431 1427 1420 1419 1414 1411 1407 1403 1400 1396 1392 1388 1385 1382 1379 1377 1375
1458 1459 1459 1459 1458 1458 1458 1457 1456 1455 1453 1452 1451 1449 1447 1445 1443 1440 1437 1433 1428 1426 1422 1416 1411 1407 1403 1399 1395 1392 1388 1384 1380 1376 1372 1370 1367 1365
1457 1457 1457 1457 1456 1455 1455 1453 1452 1451 1449 1447 1446 1444 1442 1440 1438 1435 1432 1428 1422 1419 1417 1411 1405 1400 1394 1389 1386 1382 1378 1374 1371 1366 1363 1360 1357 1354
1456 1456 1455 1454 1453 1452 1451 1450 1449 1447 1445 1444 1442 1440 1438 1436 1433 1430 1427 1423 1418 1412 1409 1405 1399 1394 1384 1379 1377 1373 1369 1365 1361 1357 1353 1350 1347 1344
1455 1454 1453 1452 1450 1449 1448 1447 1445 1443 1441 1440 1438 1436 1434 1431 1428 1425 1422 1418 1413 1408 1405 1400 1393 1389 1383 1373 1367 1365 1361 1356 1351 1347 1344 1341 1338 1335
1453 1452 1451 1449 1447 1446 1445 1443 1442 1440 1438 1436 1434 1432 1429 1427 1424 1420 1417 1412 1408 1403 1399 1394 1388 1383 1377 1369 1362 1356 1353 1349 1344 1339 1335 1332 1330 1327
1451 1450 1448 1446 1444 1443 1441 1440 1438 1436 1435 1432 1430 1427 1425 1421 1418 1414 1411 1406 1401 1397 1392 1387 1382 1376 1371 1364 1356 1350 1345 1340 1336 1332 1327 1323 1320 1317
1449 1447 1445 1443 1442 1440 1438 1437 1435 1433 1431 1429 1426 1423 1420 1416 1413 1409 1404 1399 1393 1389 1386 1380 1375 1370 1363 1358 1351 1343 1339 1333 1328 1324 1319 1315 1312 1308
1447 1445 1443 1441 1439 1438 1436 1434 1432 1430 1428 1425 1422 1419 1415 1411 1408 1403 1398 1393 1387 1381 1376 1373 1369 1363 1357 1351 1344 1337 1332 1326 1321 1317 1312 1306 1302 1299
1444 1442 1440 1438 1437 1435 1433 1431 1429 1427 1424 1421 1418 1414 1410 1406 1402 1398 1393 1388 1382 1376 1371 1366 1361 1354 1349 1343 1339 1331 1325 1319 1314 1310 1305 1299 1292 1290
1442 1440 1438 1436 1434 1432 1429 1427 1425 1423 1420 1417 1413 1410 1406 1401 1397 1392 1387 1382 1376 1370 1365 1360 1355 1350 1343 1334 1328 1326 1319 1312 1306 1301 1297 1292 1285 1280
1439 1437 1435 1433 1431 1428 1426 1424 1421 1418 1415 1412 1408 1405 1401 1396 1391 1386 1381 1376 1370 1364 1358 1354 1350 1345 1339 1331 1321 1313 1312 1306 1299 1293 1288 1282 1277 1272
1436 1434 1432 1429 1427 1425 1422 1420 1417 1414 1411 1407 1403 1400 1396 1391 1386 1381 1376 1370 1365 1358 1352 1346 1342 1338 1331 1324 1315 1305 1301 1299 1293 1287 1280 1274 1268 1263
1433 1431 1428 1426 1424 1421 1418 1415 1412 1409 1406 1402 1398 1394 1390 1385 1380 1375 1370 1364 1358 1352 1346 1339 1334 1329 1324 1318 1309 1300 1291 1287 1283 1279 1273 1268 1264 1256
1429 1427 1425 1422 1420 1417 1414 1411 1407 1404 1400 1397 1392 1388 1384 1379 1374 1369 1363 1358 1352 1346 1339 1332 1326 1321 1316 1310 1302 1294 1286 1279 1273 1267 1263 1260 1256 1250